QPF
0.00 0.00 0.00 0.00 0.00 0.00 0.00 0.00 0.00 0.00 0.00 0.00 0.00 0.00 0.00 0.00 0.00 0.00 0.00 0.00 0.00 0.00 0.00 0.00 0.00 0.00 0.00 0.00 0.00 0.00 0.00 0.00 0.00 0.00 0.00 0.00 0.00 0.00 0.00 0.00 0.00 0.00 0.00 0.00
0.00 0.00 0.00 0.00 0.00 0.00 0.00 0.00 0.00 0.00 0.00 0.00 0.00 0.00 0.00 0.00 0.00 0.00 0.00 0.00 0.00 0.00 0.00 0.00 0.00 0.00 0.00 0.00 0.00 0.00 0.00 0.00 0.00 0.00 0.00 0.00 0.00 0.00 0.00 0.00 0.00 0.00 0.00 0.00
0.00 0.00 0.00 0.00 0.00 0.00 0.00 0.00 0.00 0.00 0.00 0.00 0.00 0.00 0.00 0.00 0.00 0.00 0.00 0.00 0.00 0.00 0.00 0.00 0.00 0.00 0.00 0.00 0.00 0.00 0.00 0.00 0.00 0.00 0.00 0.00 0.00 0.00 0.00 0.00 0.00 0.00 0.00 0.00
0.00 0.00 0.00 0.00 0.00 0.00 0.00 0.00 0.00 0.00 0.00 0.00 0.00 0.00 0.00 0.00 0.00 0.00 0.00 0.00 0.00 0.00 0.00 0.00 0.00 0.00 0.00 0.00 0.00 0.00 0.00 0.00 0.00 0.00 0.00 0.00 0.00 0.00 0.00 0.00 0.00 0.00 0.00 0.00
0.00 0.00 0.00 0.00 0.00 0.00 0.00 0.00 0.00 0.00 0.00 0.00 0.00 0.00 0.00 0.00 0.00 0.00 0.00 0.00 0.00 0.00 0.00 0.00 0.00 0.00 0.00 0.00 0.00 0.00 0.00 0.00 0.00 0.00 0.00 0.00 0.00 0.00 0.00 0.00 0.00 0.00 0.00 0.00
0.00 0.00 0.00 0.00 0.00 0.00 0.00 0.00 0.00 0.00 0.00 0.00 0.00 0.00 0.00 0.00 0.00 0.00 0.00 0.00 0.00 0.00 0.00 0.00 0.00 0.00 0.00 0.00 0.00 0.00 0.00 0.00 0.00 0.00 0.00 0.00 0.00 0.00 0.00 0.00 0.01 0.01 0.00 0.00
0.00 0.00 0.00 0.00 0.00 0.00 0.00 0.00 0.00 0.00 0.00 0.00 0.00 0.00 0.00 0.00 0.00 0.00 0.00 0.00 0.00 0.00 0.00 0.00 0.00 0.00 0.00 0.00 0.00 0.00 0.00 0.00 0.00 0.00 0.00 0.00 0.00 0.00 0.00 0.01 0.01 0.01 0.01 0.01
0.00 0.00 0.00 0.00 0.00 0.00 0.00 0.00 0.00 0.00 0.00 0.00 0.00 0.00 0.00 0.00 0.00 0.00 0.00 0.00 0.00 0.00 0.00 0.00 0.00 0.00 0.00 0.00 0.00 0.00 0.00 0.00 0.00 0.00 0.00 0.00 0.00 0.00 0.00 0.01 0.01 0.01 0.01 0.01
0.00 0.00 0.00 0.00 0.00 0.00 0.00 0.00 0.00 0.00 0.00 0.00 0.00 0.00 0.00 0.00 0.00 0.00 0.00 0.00 0.00 0.00 0.00 0.00 0.00 0.00 0.00 0.00 0.00 0.00 0.00 0.00 0.00 0.00 0.00 0.00 0.00 0.00 0.00 0.00 0.01 0.02 0.03 0.02
0.00 0.00 0.00 0.00 0.00 0.00 0.00 0.00 0.00 0.00 0.00 0.00 0.00 0.00 0.00 0.00 0.00 0.00 0.00 0.00 0.00 0.00 0.00 0.00 0.00 0.00 0.00 0.00 0.00 0.00 0.00 0.00 0.00 0.00 0.00 0.00 0.00 0.00 0.00 0.00 0.01 0.02 0.03 0.03
0.00 0.00 0.00 0.00 0.00 0.00 0.00 0.00 0.00 0.00 0.00 0.00 0.00 0.00 0.00 0.00 0.00 0.00 0.00 0.00 0.00 0.00 0.00 0.00 0.00 0.00 0.00 0.00 0.00 0.00 0.00 0.00 0.00 0.00 0.00 0.00 0.00 0.00 0.00 0.00 0.00 0.01 0.02 0.03
0.00 0.00 0.00 0.00 0.00 0.00 0.00 0.00 0.00 0.00 0.00 0.00 0.00 0.00 0.00 0.00 0.00 0.00 0.00 0.00 0.00 0.00 0.00 0.00 0.00 0.00 0.00 0.00 0.00 0.00 0.00 0.00 0.00 0.00 0.00 0.00 0.00 0.00 0.00 0.00 0.00 0.00 0.01 0.02
0.00 0.00 0.00 0.00 0.00 0.00 0.00 0.00 0.00 0.00 0.00 0.00 0.00 0.00 0.00 0.00 0.00 0.00 0.00 0.00 0.00 0.00 0.00 0.00 0.00 0.00 0.00 0.00 0.00 0.00 0.00 0.00 0.00 0.00 0.00 0.00 0.00 0.00 0.00 0.00 0.00 0.00 0.00 0.01
0.00 0.00 0.00 0.00 0.00 0.00 0.00 0.00 0.00 0.00 0.00 0.00 0.00 0.00 0.00 0.00 0.00 0.00 0.00 0.00 0.00 0.00 0.00 0.00 0.00 0.00 0.00 0.00 0.00 0.00 0.00 0.00 0.00 0.00 0.00 0.00 0.00 0.01 0.01 0.01 0.01 0.00 0.00 0.00
0.00 0.00 0.00 0.00 0.00 0.00 0.00 0.00 0.00 0.00 0.00 0.00 0.00 0.00 0.00 0.00 0.00 0.00 0.00 0.00 0.00 0.00 0.00 0.00 0.00 0.00 0.00 0.00 0.00 0.00 0.00 0.00 0.00 0.00 0.00 0.00 0.00 0.01 0.01 0.01 0.01 0.00 0.00 0.00
0.00 0.00 0.00 0.00 0.00 0.00 0.00 0.00 0.00 0.00 0.00 0.00 0.00 0.00 0.00 0.00 0.00 0.00 0.00 0.00 0.00 0.00 0.00 0.00 0.00 0.00 0.00 0.00 0.00 0.00 0.00 0.00 0.00 0.00 0.00 0.00 0.01 0.01 0.00 0.00 0.00 0.00 0.00 0.00
0.00 0.00 0.00 0.00 0.00 0.00 0.00 0.00 0.00 0.00 0.00 0.00 0.00 0.00 0.00 0.00 0.00 0.00 0.00 0.00 0.00 0.00 0.00 0.00 0.00 0.00 0.00 0.00 0.00 0.00 0.00 0.00 0.00 0.00 0.00 0.00 0.00 0.00 0.00 0.00 0.00 0.00 0.00 0.00
0.00 0.00 0.00 0.00 0.00 0.00 0.00 0.00 0.00 0.00 0.00 0.00 0.00 0.00 0.00 0.00 0.00 0.00 0.00 0.00 0.00 0.00 0.00 0.00 0.00 0.00 0.00 0.00 0.00 0.00 0.00 0.00 0.00 0.00 0.00 0.00 0.00 0.00 0.00 0.00 0.00 0.00 0.00 0.00
0.00 0.00 0.00 0.00 0.00 0.00 0.00 0.00 0.00 0.00 0.00 0.00 0.00 0.00 0.00 0.00 0.00 0.00 0.00 0.00 0.00 0.00 0.00 0.00 0.00 0.00 0.00 0.00 0.00 0.00 0.00 0.00 0.00 0.00 0.00 0.00 0.00 0.00 0.00 0.00 0.00 0.00 0.00 0.00
0.00 0.00 0.00 0.00 0.00 0.00 0.00 0.00 0.00 0.00 0.00 0.00 0.00 0.00 0.00 0.00 0.00 0.00 0.00 0.00 0.00 0.00 0.00 0.00 0.00 0.00 0.00 0.00 0.00 0.00 0.00 0.00 0.00 0.00 0.00 0.00 0.00 0.00 0.00 0.00 0.00 0.00 0.00 0.01
0.00 0.00 0.00 0.00 0.00 0.00 0.00 0.00 0.00 0.00 0.00 0.00 0.00 0.00 0.00 0.00 0.00 0.00 0.00 0.00 0.00 0.00 0.00 0.00 0.00 0.00 0.00 0.00 0.00 0.00 0.00 0.00 0.00 0.00 0.00 0.01 0.00 0.00 0.00 0.00 0.00 0.01 0.01 0.01
0.00 0.00 0.00 0.00 0.00 0.00 0.00 0.00 0.00 0.00 0.00 0.00 0.00 0.00 0.00 0.00 0.00 0.00 0.00 0.00 0.00 0.00 0.00 0.00 0.00 0.00 0.00 0.00 0.00 0.00 0.00 0.00 0.00 0.00 0.01 0.00 0.00 0.00 0.00 0.01 0.01 0.01 0.01 0.01
0.00 0.00 0.00 0.00 0.00 0.00 0.00 0.00 0.00 0.00 0.00 0.00 0.00 0.00 0.00 0.00 0.00 0.00 0.00 0.00 0.00 0.00 0.00 0.00 0.00 0.00 0.00 0.00 0.00 0.00 0.00 0.00 0.00 0.00 0.00 0.00 0.00 0.00 0.01 0.01 0.01 0.01 0.01 0.01
0.00 0.00 0.00 0.00 0.00 0.00 0.00 0.00 0.00 0.00 0.00 0.00 0.00 0.00 0.00 0.00 0.00 0.00 0.00 0.00 0.00 0.00 0.00 0.00 0.00 0.00 0.00 0.00 0.00 0.00 0.00 0.00 0.00 0.00 0.00 0.01 0.01 0.01 0.01 0.01 0.01 0.01 0.01 0.01
0.00 0.00 0.00 0.00 0.00 0.00 0.00 0.00 0.00 0.00 0.00 0.00 0.00 0.00 0.00 0.00 0.00 0.00 0.00 0.00 0.00 0.00 0.00 0.00 0.00 0.00 0.00 0.00 0.00 0.00 0.00 0.00 0.00 0.01 0.01 0.01 0.01 0.01 0.01 0.01 0.02 0.02 0.01 0.02
0.00 0.00 0.00 0.00 0.00 0.00 0.00 0.00 0.00 0.00 0.00 0.00 0.00 0.00 0.00 0.00 0.00 0.00 0.00 0.00 0.00 0.00 0.00 0.00 0.00 0.00 0.00 0.00 0.00 0.00 0.00 0.01 0.01 0.01 0.01 0.01 0.01 0.01 0.01 0.02 0.02 0.02 0.02 0.02
0.00 0.00 0.00 0.00 0.00 0.00 0.00 0.00 0.00 0.00 0.00 0.00 0.00 0.00 0.00 0.00 0.00 0.00 0.00 0.00 0.00 0.00 0.00 0.00 0.00 0.00 0.00 0.00 0.00 0.00 0.00 0.01 0.01 0.01 0.01 0.01 0.01 0.02 0.02 0.02 0.02 0.02 0.02 0.02
MSLP
1009.01 1009.03 1009.02 1009.02 1009.06 1009.15 1009.29 1009.49 1009.72 1009.99 1010.28 1010.59 1010.91 1011.27 1011.65 1012.07 1012.50 1012.93 1013.34 1013.71 1013.99 1014.18 1014.26 1014.24 1014.12 1013.94 1013.72 1013.48 1013.25 1013.04 1012.87 1012.72 1012.61 1012.51 1012.42 1012.35 1012.29 1012.25 1012.24 1012.27 1012.34 1012.44 1012.57 1012.72
1009.14 1009.17 1009.11 1009.01 1008.91 1008.83 1008.81 1008.86 1008.99 1009.20 1009.49 1009.85 1010.28 1010.75 1011.26 1011.79 1012.31 1012.81 1013.26 1013.64 1013.94 1014.15 1014.26 1014.29 1014.25 1014.16 1014.04 1013.90 1013.77 1013.63 1013.50 1013.37 1013.24 1013.10 1012.95 1012.80 1012.65 1012.53 1012.43 1012.38 1012.38 1012.43 1012.52 1012.63
1009.36 1009.35 1009.23 1009.03 1008.79 1008.56 1008.38 1008.29 1008.32 1008.47 1008.76 1009.17 1009.67 1010.26 1010.88 1011.52 1012.13 1012.70 1013.20 1013.61 1013.93 1014.16 1014.30 1014.38 1014.41 1014.41 1014.38 1014.35 1014.30 1014.24 1014.17 1014.06 1013.92 1013.75 1013.55 1013.33 1013.10 1012.89 1012.71 1012.57 1012.49 1012.46 1012.49 1012.55
1009.53 1009.47 1009.27 1008.96 1008.60 1008.24 1007.94 1007.74 1007.69 1007.80 1008.09 1008.53 1009.11 1009.79 1010.52 1011.25 1011.96 1012.60 1013.15 1013.59 1013.93 1014.19 1014.36 1014.49 1014.57 1014.64 1014.69 1014.74 1014.77 1014.78 1014.75 1014.68 1014.55 1014.37 1014.13 1013.86 1013.58 1013.30 1013.05 1012.83 1012.67 1012.57 1012.52 1012.52
1009.53 1009.39 1009.12 1008.73 1008.28 1007.83 1007.44 1007.17 1007.08 1007.17 1007.47 1007.95 1008.60 1009.35 1010.17 1010.99 1011.77 1012.47 1013.07 1013.55 1013.92 1014.19 1014.39 1014.54 1014.67 1014.78 1014.89 1015.00 1015.09 1015.16 1015.18 1015.14 1015.04 1014.87 1014.63 1014.35 1014.04 1013.72 1013.42 1013.15 1012.94 1012.77 1012.66 1012.59
1009.24 1009.05 1008.72 1008.29 1007.80 1007.31 1006.89 1006.60 1006.49 1006.59 1006.91 1007.43 1008.13 1008.95 1009.84 1010.72 1011.56 1012.32 1012.95 1013.46 1013.84 1014.13 1014.34 1014.51 1014.66 1014.80 1014.94 1015.09 1015.23 1015.34 1015.41 1015.41 1015.35 1015.21 1015.00 1014.74 1014.43 1014.12 1013.81 1013.52 1013.27 1013.07 1012.91 1012.79
1008.66 1008.44 1008.10 1007.67 1007.18 1006.71 1006.31 1006.04 1005.95 1006.08 1006.43 1006.98 1007.72 1008.59 1009.51 1010.44 1011.32 1012.11 1012.77 1013.29 1013.69 1013.99 1014.21 1014.38 1014.53 1014.69 1014.85 1015.02 1015.19 1015.33 1015.44 1015.50 1015.48 1015.40 1015.24 1015.02 1014.76 1014.47 1014.19 1013.91 1013.67 1013.45 1013.27 1013.12
1007.84 1007.63 1007.32 1006.93 1006.51 1006.10 1005.76 1005.55 1005.51 1005.67 1006.05 1006.63 1007.39 1008.26 1009.20 1010.15 1011.04 1011.84 1012.51 1013.05 1013.46 1013.76 1013.99 1014.17 1014.32 1014.48 1014.65 1014.84 1015.02 1015.20 1015.34 1015.44 1015.48 1015.45 1015.35 1015.20 1015.00 1014.77 1014.53 1014.29 1014.07 1013.87 1013.70 1013.54
1006.90 1006.73 1006.49 1006.20 1005.87 1005.56 1005.32 1005.18 1005.20 1005.40 1005.79 1006.38 1007.12 1007.98 1008.91 1009.83 1010.72 1011.51 1012.19 1012.73 1013.15 1013.47 1013.71 1013.90 1014.06 1014.23 1014.41 1014.60 1014.81 1015.00 1015.18 1015.31 1015.39 1015.42 1015.38 1015.28 1015.15 1014.98 1014.79 1014.60 1014.42 1014.26 1014.10 1013.96
1005.98 1005.88 1005.74 1005.56 1005.36 1005.17 1005.02 1004.96 1005.03 1005.25 1005.65 1006.21 1006.91 1007.73 1008.61 1009.50 1010.35 1011.12 1011.79 1012.35 1012.79 1013.12 1013.39 1013.60 1013.79 1013.97 1014.17 1014.37 1014.59 1014.80 1014.99 1015.15 1015.27 1015.33 1015.33 1015.28 1015.19 1015.08 1014.94 1014.80 1014.66 1014.53 1014.40 1014.28
1005.21 1005.19 1005.16 1005.09 1005.01 1004.93 1004.87 1004.88 1004.98 1005.21 1005.58 1006.09 1006.74 1007.49 1008.30 1009.13 1009.93 1010.68 1011.34 1011.90 1012.36 1012.73 1013.03 1013.29 1013.51 1013.73 1013.95 1014.17 1014.40 1014.62 1014.82 1014.99 1015.11 1015.19 1015.21 1015.19 1015.13 1015.04 1014.93 1014.82 1014.71 1014.61 1014.51 1014.42
1004.64 1004.71 1004.76 1004.80 1004.82 1004.82 1004.84 1004.89 1005.00 1005.22 1005.54 1005.99 1006.56 1007.22 1007.95 1008.71 1009.46 1010.17 1010.82 1011.40 1011.88 1012.29 1012.64 1012.94 1013.21 1013.47 1013.72 1013.97 1014.21 1014.44 1014.64 1014.80 1014.92 1015.00 1015.02 1014.99 1014.93 1014.84 1014.74 1014.64 1014.54 1014.45 1014.38 1014.31
1004.28 1004.39 1004.52 1004.64 1004.72 1004.79 1004.85 1004.92 1005.03 1005.21 1005.48 1005.86 1006.34 1006.91 1007.55 1008.24 1008.93 1009.61 1010.24 1010.81 1011.32 1011.77 1012.16 1012.51 1012.83 1013.13 1013.42 1013.69 1013.95 1014.19 1014.39 1014.55 1014.66 1014.71 1014.72 1014.67 1014.59 1014.49 1014.37 1014.26 1014.16 1014.07 1014.00 1013.94
1004.04 1004.19 1004.36 1004.52 1004.66 1004.76 1004.84 1004.92 1005.02 1005.16 1005.38 1005.68 1006.08 1006.56 1007.12 1007.73 1008.35 1008.98 1009.59 1010.15 1010.67 1011.14 1011.56 1011.95 1012.31 1012.65 1012.98 1013.28 1013.56 1013.81 1014.02 1014.17 1014.27 1014.31 1014.29 1014.23 1014.12 1014.00 1013.86 1013.73 1013.61 1013.51 1013.43 1013.36
1003.86 1004.03 1004.22 1004.41 1004.57 1004.69 1004.78 1004.86 1004.94 1005.06 1005.23 1005.47 1005.79 1006.20 1006.67 1007.20 1007.75 1008.32 1008.88 1009.41 1009.91 1010.38 1010.81 1011.22 1011.61 1011.98 1012.34 1012.67 1012.98 1013.25 1013.47 1013.63 1013.73 1013.77 1013.75 1013.67 1013.55 1013.40 1013.24 1013.09 1012.94 1012.82 1012.72 1012.63
1003.67 1003.86 1004.07 1004.27 1004.45 1004.58 1004.69 1004.76 1004.84 1004.93 1005.07 1005.26 1005.52 1005.85 1006.24 1006.68 1007.16 1007.64 1008.13 1008.61 1009.06 1009.50 1009.92 1010.32 1010.72 1011.11 1011.48 1011.84 1012.18 1012.48 1012.73 1012.92 1013.04 1013.09 1013.08 1013.01 1012.89 1012.74 1012.56 1012.39 1012.22 1012.07 1011.94 1011.82
1003.49 1003.69 1003.92 1004.14 1004.33 1004.48 1004.60 1004.69 1004.76 1004.84 1004.95 1005.11 1005.31 1005.57 1005.88 1006.23 1006.60 1006.99 1007.38 1007.77 1008.15 1008.53 1008.91 1009.28 1009.67 1010.05 1010.44 1010.83 1011.19 1011.53 1011.82 1012.05 1012.21 1012.30 1012.32 1012.27 1012.17 1012.03 1011.86 1011.67 1011.48 1011.30 1011.14 1010.98
1003.37 1003.59 1003.84 1004.08 1004.29 1004.46 1004.59 1004.69 1004.77 1004.84 1004.93 1005.05 1005.20 1005.38 1005.60 1005.85 1006.11 1006.38 1006.66 1006.95 1007.23 1007.53 1007.84 1008.17 1008.52 1008.90 1009.29 1009.69 1010.09 1010.46 1010.79 1011.07 1011.28 1011.42 1011.49 1011.48 1011.41 1011.29 1011.13 1010.94 1010.74 1010.54 1010.34 1010.14
1003.38 1003.63 1003.90 1004.16 1004.38 1004.57 1004.71 1004.82 1004.89 1004.96 1005.03 1005.10 1005.19 1005.29 1005.41 1005.55 1005.69 1005.84 1006.00 1006.17 1006.35 1006.56 1006.79 1007.07 1007.38 1007.74 1008.13 1008.54 1008.96 1009.36 1009.73 1010.05 1010.31 1010.50 1010.60 1010.63 1010.60 1010.50 1010.36 1010.18 1009.97 1009.75 1009.52 1009.29
1003.57 1003.86 1004.14 1004.41 1004.64 1004.83 1004.97 1005.07 1005.13 1005.17 1005.20 1005.22 1005.24 1005.26 1005.28 1005.30 1005.33 1005.36 1005.40 1005.46 1005.55 1005.67 1005.84 1006.06 1006.34 1006.67 1007.05 1007.46 1007.89 1008.30 1008.69 1009.04 1009.32 1009.54 1009.68 1009.74 1009.72 1009.65 1009.52 1009.35 1009.15 1008.92 1008.68 1008.42
1003.97 1004.26 1004.54 1004.80 1005.02 1005.18 1005.30 1005.37 1005.40 1005.40 1005.38 1005.33 1005.28 1005.21 1005.14 1005.06 1004.99 1004.92 1004.86 1004.83 1004.84 1004.90 1005.02 1005.20 1005.45 1005.75 1006.11 1006.51 1006.92 1007.33 1007.72 1008.06 1008.34 1008.56 1008.70 1008.77 1008.77 1008.71 1008.60 1008.44 1008.24 1008.02 1007.77 1007.52
1004.48 1004.76 1005.02 1005.24 1005.42 1005.54 1005.61 1005.64 1005.62 1005.56 1005.47 1005.36 1005.23 1005.09 1004.93 1004.78 1004.62 1004.48 1004.36 1004.28 1004.24 1004.26 1004.35 1004.50 1004.73 1005.01 1005.34 1005.71 1006.09 1006.46 1006.81 1007.11 1007.36 1007.55 1007.68 1007.73 1007.73 1007.67 1007.57 1007.43 1007.25 1007.05 1006.82 1006.58
1005.01 1005.24 1005.45 1005.61 1005.72 1005.78 1005.79 1005.75 1005.66 1005.55 1005.40 1005.22 1005.03 1004.83 1004.62 1004.41 1004.21 1004.04 1003.89 1003.78 1003.73 1003.74 1003.82 1003.96 1004.16 1004.41 1004.71 1005.03 1005.35 1005.66 1005.94 1006.18 1006.38 1006.51 1006.60 1006.63 1006.61 1006.56 1006.47 1006.35 1006.20 1006.04 1005.85 1005.64
1005.40 1005.56 1005.68 1005.77 1005.80 1005.78 1005.72 1005.62 1005.48 1005.31 1005.11 1004.90 1004.67 1004.43 1004.20 1003.97 1003.76 1003.58 1003.44 1003.34 1003.30 1003.31 1003.39 1003.52 1003.70 1003.92 1004.17 1004.42 1004.67 1004.90 1005.09 1005.25 1005.37 1005.45 1005.48 1005.48 1005.46 1005.41 1005.34 1005.25 1005.15 1005.03 1004.89 1004.73
1005.52 1005.60 1005.64 1005.64 1005.60 1005.52 1005.40 1005.24 1005.06 1004.86 1004.64 1004.41 1004.17 1003.93 1003.70 1003.49 1003.30 1003.14 1003.02 1002.95 1002.93 1002.95 1003.03 1003.15 1003.30 1003.47 1003.65 1003.83 1003.99 1004.13 1004.24 1004.31 1004.35 1004.37 1004.36 1004.34 1004.31 1004.27 1004.23 1004.18 1004.13 1004.06 1003.97 1003.86
1005.33 1005.32 1005.29 1005.22 1005.12 1004.99 1004.83 1004.66 1004.46 1004.26 1004.04 1003.82 1003.61 1003.40 1003.20 1003.02 1002.87 1002.74 1002.66 1002.61 1002.60 1002.63 1002.70 1002.79 1002.90 1003.01 1003.12 1003.21 1003.29 1003.34 1003.36 1003.36 1003.34 1003.31 1003.27 1003.24 1003.21 1003.20 1003.19 1003.18 1003.17 1003.15 1003.10 1003.02
1004.85 1004.78 1004.68 1004.57 1004.44 1004.29 1004.13 1003.97 1003.79 1003.61 1003.43 1003.26 1003.08 1002.92 1002.76 1002.63 1002.51 1002.42 1002.35 1002.32 1002.31 1002.32 1002.36 1002.40 1002.45 1002.50 1002.53 1002.54 1002.54 1002.51 1002.47 1002.41 1002.35 1002.30 1002.25 1002.23 1002.22 1002.23 1002.25 1002.27 1002.28 1002.28 1002.23 1002.15
Thickness
5752 5758 5759 5755 5753 5753 5750 5751 5746 5746 5740 5743 5745 5743 5742 5740 5738 5734 5732 5730 5728 5727 5727 5727 5726 5727 5727 5725 5725 5724 5721 5718 5716 5716 5715 5713 5712 5711 5710 5709 5709 5707 5706 5705
5748 5756 5755 5751 5755 5755 5754 5755 5753 5750 5747 5758 5756 5750 5743 5740 5736 5731 5728 5727 5726 5726 5725 5724 5723 5723 5722 5721 5721 5720 5716 5713 5711 5710 5709 5707 5707 5706 5705 5704 5703 5703 5701 5700
5737 5753 5748 5737 5755 5756 5755 5759 5756 5746 5750 5757 5750 5745 5742 5739 5735 5731 5728 5725 5723 5722 5722 5722 5722 5721 5719 5718 5717 5714 5710 5707 5705 5704 5702 5701 5701 5699 5698 5697 5697 5696 5696 5695
5736 5738 5719 5751 5775 5771 5762 5762 5764 5761 5758 5755 5750 5747 5745 5741 5735 5730 5727 5723 5721 5720 5719 5719 5719 5718 5716 5715 5711 5707 5704 5701 5699 5697 5695 5694 5693 5691 5691 5690 5690 5689 5689 5689
5732 5727 5737 5753 5766 5767 5756 5753 5766 5761 5757 5753 5750 5741 5736 5740 5737 5730 5726 5723 5720 5718 5717 5716 5714 5713 5711 5708 5704 5700 5696 5693 5692 5690 5688 5686 5684 5683 5683 5682 5682 5682 5682 5682
5730 5720 5721 5749 5769 5775 5760 5742 5765 5764 5754 5749 5741 5722 5726 5736 5733 5728 5724 5720 5717 5715 5713 5709 5707 5706 5703 5699 5695 5691 5688 5686 5685 5683 5680 5678 5676 5675 5674 5673 5673 5673 5673 5673
5720 5721 5738 5756 5766 5763 5733 5741 5766 5764 5756 5748 5739 5737 5739 5735 5729 5724 5719 5716 5713 5709 5704 5702 5701 5699 5694 5691 5687 5684 5682 5679 5677 5675 5673 5671 5669 5666 5664 5663 5662 5662 5661 5661
5721 5714 5728 5756 5756 5748 5748 5762 5763 5759 5754 5747 5742 5740 5736 5729 5722 5717 5712 5709 5706 5701 5698 5696 5694 5690 5686 5682 5680 5678 5675 5672 5669 5667 5665 5664 5659 5656 5654 5651 5649 5647 5646 5646
5737 5734 5750 5758 5756 5758 5760 5756 5755 5752 5749 5743 5735 5730 5726 5720 5715 5711 5707 5703 5700 5696 5692 5690 5687 5683 5678 5676 5674 5670 5667 5663 5661 5659 5656 5653 5649 5645 5641 5638 5634 5632 5630 5628
5739 5739 5746 5749 5751 5752 5752 5750 5749 5747 5742 5737 5728 5723 5718 5713 5709 5705 5701 5697 5693 5689 5685 5682 5680 5677 5673 5670 5666 5662 5658 5654 5652 5649 5645 5642 5638 5634 5628 5624 5620 5617 5614 5613
5728 5735 5738 5739 5742 5743 5742 5742 5740 5737 5735 5729 5722 5716 5711 5707 5702 5698 5695 5691 5687 5682 5678 5675 5673 5669 5666 5663 5658 5652 5648 5645 5642 5638 5634 5630 5626 5621 5617 5613 5608 5604 5601 5599
5718 5732 5730 5730 5736 5737 5732 5730 5729 5725 5722 5721 5716 5710 5705 5700 5696 5691 5687 5683 5679 5675 5671 5668 5665 5661 5658 5654 5649 5643 5638 5634 5630 5626 5622 5617 5613 5610 5607 5602 5599 5595 5591 5586
5726 5728 5728 5728 5729 5727 5723 5721 5720 5717 5713 5709 5707 5703 5698 5692 5687 5683 5679 5675 5670 5667 5663 5660 5656 5652 5648 5645 5639 5634 5628 5624 5619 5614 5610 5605 5600 5596 5592 5591 5587 5583 5578 5574
5718 5716 5711 5713 5713 5715 5713 5712 5710 5707 5704 5701 5697 5693 5688 5683 5678 5674 5670 5667 5663 5658 5654 5650 5646 5642 5639 5635 5629 5624 5619 5614 5608 5603 5598 5593 5588 5583 5579 5576 5573 5570 5567 5562
5705 5704 5702 5704 5703 5702 5701 5698 5695 5692 5690 5688 5685 5681 5677 5672 5667 5664 5662 5658 5653 5648 5644 5640 5636 5632 5629 5625 5619 5614 5608 5602 5597 5592 5586 5580 5575 5571 5567 5563 5559 5556 5553 5549
5693 5693 5691 5690 5688 5688 5686 5684 5681 5679 5677 5675 5672 5669 5666 5663 5658 5655 5652 5648 5642 5636 5633 5630 5626 5623 5619 5614 5608 5602 5597 5592 5586 5580 5574 5568 5563 5558 5553 5549 5545 5541 5536 5532
5678 5676 5675 5674 5674 5674 5673 5672 5670 5668 5666 5663 5661 5658 5655 5651 5647 5643 5640 5637 5633 5628 5624 5620 5616 5613 5609 5603 5597 5591 5585 5580 5575 5568 5562 5556 5550 5544 5539 5534 5530 5526 5522 5519
5671 5670 5668 5666 5664 5662 5661 5660 5658 5656 5654 5652 5650 5646 5642 5638 5634 5630 5628 5625 5621 5618 5614 5611 5607 5602 5597 5591 5585 5579 5573 5567 5561 5554 5548 5542 5537 5531 5526 5521 5516 5512 5509 5506
5658 5657 5656 5655 5653 5650 5649 5647 5646 5644 5642 5640 5636 5633 5630 5626 5623 5620 5617 5613 5609 5605 5603 5600 5595 5589 5583 5578 5572 5566 5559 5553 5547 5541 5535 5530 5524 5518 5513 5508 5504 5500 5496 5492
5643 5643 5641 5640 5639 5637 5635 5634 5633 5631 5629 5627 5624 5620 5617 5614 5611 5608 5605 5601 5598 5595 5592 5587 5582 5576 5570 5565 5559 5552 5546 5539 5533 5527 5521 5516 5510 5505 5500 5496 5491 5486 5483 5479
5625 5625 5625 5624 5623 5622 5622 5621 5619 5617 5615 5613 5610 5607 5604 5602 5599 5595 5591 5588 5587 5583 5579 5573 5567 5561 5555 5549 5544 5537 5531 5525 5519 5513 5508 5502 5497 5493 5488 5483 5479 5475 5471 5468
5609 5609 5609 5608 5607 5607 5607 5606 5605 5603 5601 5599 5597 5594 5591 5588 5585 5582 5579 5575 5572 5568 5563 5558 5552 5546 5540 5534 5528 5522 5516 5510 5505 5500 5495 5490 5485 5480 5476 5471 5467 5464 5460 5457
5594 5594 5594 5593 5593 5593 5592 5592 5591 5589 5587 5585 5582 5579 5576 5573 5570 5566 5563 5562 5558 5553 5547 5542 5536 5530 5524 5517 5512 5507 5502 5497 5492 5487 5483 5478 5473 5468 5464 5460 5456 5453 5449 5446
5577 5577 5578 5578 5578 5578 5577 5577 5576 5574 5572 5569 5567 5564 5561 5558 5555 5553 5550 5547 5542 5537 5531 5526 5520 5514 5508 5502 5497 5492 5488 5484 5479 5475 5471 5466 5462 5457 5453 5449 5445 5442 5439 5436
5562 5562 5563 5562 5562 5562 5562 5561 5560 5557 5555 5553 5551 5549 5546 5543 5539 5537 5533 5530 5526 5520 5515 5510 5505 5499 5493 5488 5483 5479 5475 5472 5468 5463 5458 5454 5450 5446 5442 5439 5435 5431 5429 5426
5546 5546 5546 5547 5547 5545 5545 5543 5541 5540 5537 5535 5533 5531 5529 5526 5523 5520 5516 5512 5508 5504 5498 5493 5489 5484 5480 5476 5472 5468 5464 5461 5457 5452 5449 5445 5441 5437 5434 5430 5426 5422 5420 5418
5530 5530 5530 5530 5530 5529 5528 5527 5525 5523 5521 5518 5516 5514 5512 5509 5506 5503 5499 5495 5491 5488 5484 5480 5476 5472 5468 5464 5461 5457 5454 5450 5447 5443 5439 5436 5432 5428 5424 5421 5417 5414 5412 5410